Tracking 35331 objects as of 14-Sep-2026
HD Live streaming from Space Station
objects crossing your sky now

ATLAS AGENA D DEB


ATLAS AGENA D DEB is no longer on orbit


NORAD ID: 680
Int'l Code: 1963-041D
Launch date: October 25, 1963
Source: United States (US)
Launch site: AIR FORCE WESTERN TEST RANGE (AFWTR)
Decay date: 1963-10-29

Note: This is SATELLITE DEBRIS
Your satellite tracking list
Your tracking list is empty




NASA's NSSDC Master Catalog

Two Line Element Set (TLE):
1 00680U 63041  D 63300.99153109  .10144528 -13213-8 +00000-0 0  9991
2 00680 099.0805 015.8256 0116362 077.6557 283.6951 16.29815497000365
Source of the keplerian elements: AFSPC